Weather History for Cecil Field, FL

Change the Weather History Date:

Thursday, June 27, 2013

  Actual Average (KJAX) Record (KJAX)
Temperature  
Mean Temperature 80 °F 81 °F  
Max Temperature 93 °F 91 °F 102 °F (1950)
Min Temperature 68 °F 72 °F 65 °F (1936)
Degree Days  
Heating Degree Days 0 0  
Month to date heating degree days 0  
Since 1 June heating degree days 0  
Since 1 July heating degree days 1349  
Cooling Degree Days 16 16  
Month to date cooling degree days 399  
Year to date cooling degree days 883  
Since 1 June cooling degree days 399  
Growing Degree Days 30 (Base 50)    
Moisture  
Dew Point 72 °F    
Average Humidity 87    
Maximum Humidity 100    
Minimum Humidity 55    
Precipitation  
Precipitation 0.00 in 0.24 in 1.39 in (1923)
Month to date precipitation 5.74  
Year to date precipitation 21.30  
Snow  
Snow 0.00 in 0.00 in 0.00 in (2002)
Month to date snowfall 0.0  
Since 1 June snowfall 0.0  
Since 1 July snowfall T  
Snow Depth -    
Sea Level Pressure  
Sea Level Pressure 29.99 in    
Wind  
Wind Speed 3 mph (SSW)    
Max Wind Speed 12 mph    
Max Gust Speed -    
Visibility 10 miles    
Events Thunderstorm    
T = Trace of Precipitation, MM = Missing Value Source: NWS Daily Summary

Daily Weather History Graph

Daily Weather History Graph

Search for Another Location

Airport:

Trip Planner

Search our weather history database for the weather conditions in past years. The results will help you decide how hot, cold, wet, or windy it might be!

Date:

Astronomy

Jun. 27, 2013 Rise Set
Actual Time 6:28 AM EDT 8:33 PM EDT
Civil Twilight 6:00 AM EDT 9:00 PM EDT
Nautical Twilight 5:27 AM EDT 9:34 PM EDT
Astronomical Twilight 4:51 AM EDT 10:09 PM EDT
Moon 11:53 PM EDT (6/27) 11:06 AM EDT (6/27)
Length of Visible Light 15h 00m
Length of Day
14h 04m
Waning Gibbous, 76% of the Moon is Illuminated
Jun 27
Waning Gibbous
Jun 30
Last Quarter
Jul 8
New
Jul 15
First Quarter
Jul 22
Full

Hourly Weather History & Observations

Time (EDT) Temp. Heat Index Dew Point Humidity Pressure Visibility Wind Dir Wind Speed Gust Speed Precip Events Conditions
12:15 AM 71.6 °F - 71.6 °F 100% 30.04 in 10.0 mi South 3.5 mph - N/A   Clear
12:35 AM 71.6 °F - 71.6 °F 100% 30.04 in 10.0 mi Calm Calm - N/A   Clear
12:55 AM 71.6 °F - 71.6 °F 100% 30.04 in 10.0 mi Calm Calm - N/A   Clear
1:15 AM 69.8 °F - 69.8 °F 100% 30.03 in 10.0 mi Calm Calm - N/A   Clear
1:35 AM 69.8 °F - 69.8 °F 100% 30.03 in 10.0 mi Calm Calm - N/A   Clear
1:55 AM 68.0 °F - 68.0 °F 100% 30.03 in 10.0 mi SE 3.5 mph - N/A   Partly Cloudy
2:15 AM 71.6 °F - 71.6 °F 100% 30.04 in 10.0 mi SSE 3.5 mph - N/A   Mostly Cloudy
2:35 AM 71.6 °F - 71.6 °F 100% 30.03 in 10.0 mi Calm Calm - N/A   Mostly Cloudy
2:55 AM 71.6 °F - 71.6 °F 100% 30.03 in 10.0 mi South 3.5 mph - N/A   Partly Cloudy
3:15 AM 69.8 °F - 69.8 °F 100% 30.02 in 10.0 mi Calm Calm - N/A   Clear
3:35 AM 69.8 °F - 69.8 °F 100% 30.03 in 10.0 mi Calm Calm - N/A   Clear
3:55 AM 69.8 °F - 69.8 °F 100% 30.03 in 10.0 mi Calm Calm - N/A   Clear
4:15 AM 68.0 °F - 68.0 °F 100% 30.02 in 10.0 mi Calm Calm - N/A   Clear
4:35 AM 68.0 °F - 68.0 °F 100% 30.02 in 10.0 mi Calm Calm - N/A   Clear
4:55 AM 68.0 °F - 68.0 °F 100% 30.02 in 9.0 mi Calm Calm - N/A   Clear
5:15 AM 68.0 °F - 68.0 °F 100% 30.03 in 9.0 mi Calm Calm - N/A   Clear
5:35 AM 68.0 °F - 68.0 °F 100% 30.03 in 10.0 mi Calm Calm - N/A   Clear
5:55 AM 68.0 °F - 68.0 °F 100% 30.03 in 9.0 mi Calm Calm - N/A   Clear
6:15 AM 68.0 °F - 68.0 °F 100% 30.03 in 9.0 mi Calm Calm - N/A   Clear
6:35 AM 68.0 °F - 68.0 °F 100% 30.03 in 7.0 mi Calm Calm - N/A   Clear
6:50 AM 68.0 °F - 68.0 °F 100% 30.03 in 10.0 mi Calm Calm - N/A   Clear
7:50 AM 73.4 °F - 73.4 °F 100% 30.03 in 10.0 mi WSW 5.8 mph - N/A   Clear
8:50 AM 77.0 °F - 73.4 °F 89% 30.04 in 10.0 mi WSW 5.8 mph - N/A   Clear
9:50 AM 82.4 °F 89.5 °F 75.2 °F 79% 30.04 in 10.0 mi WNW 6.9 mph - N/A   Partly Cloudy
10:50 AM 86.0 °F 95.1 °F 75.2 °F 70% 30.03 in 10.0 mi West 4.6 mph - N/A   Scattered Clouds
11:50 AM 87.8 °F 97.6 °F 75.2 °F 66% 30.02 in 10.0 mi West 6.9 mph - N/A   Scattered Clouds
12:50 PM 89.6 °F 99.8 °F 75.2 °F 62% 30.00 in 10.0 mi WNW 5.8 mph - N/A   Mostly Cloudy
1:50 PM 89.6 °F 99.8 °F 75.2 °F 62% 30.00 in 10.0 mi West 8.1 mph - N/A   Mostly Cloudy
2:50 PM 93.2 °F 105.0 °F 75.2 °F 56% 29.98 in 10.0 mi SW 10.4 mph - N/A   Mostly Cloudy
3:50 PM 91.4 °F 100.1 °F 73.4 °F 55% 29.95 in 10.0 mi WSW 9.2 mph - N/A   Scattered Clouds
4:50 PM 89.6 °F 98.2 °F 73.4 °F 59% 29.93 in 10.0 mi SW 9.2 mph - N/A   Scattered Clouds
5:50 PM 89.6 °F 99.8 °F 75.2 °F 62% 29.92 in 10.0 mi SW 11.5 mph - N/A   Partly Cloudy
6:50 PM 87.8 °F 93.8 °F 71.6 °F 58% 29.91 in 10.0 mi WSW 9.2 mph - N/A   Clear
7:50 PM 84.2 °F 90.9 °F 73.4 °F 70% 29.91 in 10.0 mi SW 6.9 mph - N/A   Clear
8:15 PM 82.4 °F 89.5 °F 75.2 °F 79% 29.92 in 10.0 mi South 3.5 mph - N/A   Clear
8:35 PM 82.4 °F 89.5 °F 75.2 °F 79% 29.93 in 10.0 mi South 4.6 mph - N/A   Clear
8:55 PM 82.4 °F 89.5 °F 75.2 °F 79% 29.93 in 10.0 mi South 3.5 mph - N/A   Clear
9:15 PM 80.6 °F 86.2 °F 75.2 °F 84% 29.93 in 10.0 mi South 4.6 mph - N/A   Scattered Clouds
9:35 PM 80.6 °F 86.2 °F 75.2 °F 84% 29.93 in 10.0 mi South 3.5 mph - N/A   Partly Cloudy
9:55 PM 80.6 °F 86.2 °F 75.2 °F 84% 29.94 in 10.0 mi South 4.6 mph - N/A Thunderstorm Clear
10:15 PM 80.6 °F 86.2 °F 75.2 °F 84% 29.94 in 10.0 mi South 4.6 mph - N/A   Clear
10:35 PM 80.6 °F 86.2 °F 75.2 °F 84% 29.95 in 10.0 mi South 3.5 mph - N/A   Clear
10:55 PM 78.8 °F - 75.2 °F 89% 29.94 in 10.0 mi South 3.5 mph - N/A   Clear
11:15 PM 78.8 °F - 77.0 °F 94% 29.94 in 10.0 mi South 5.8 mph - N/A   Clear
11:35 PM 78.8 °F - 77.0 °F 94% 29.96 in 10.0 mi SW 5.8 mph - N/A   Clear
11:55 PM 78.8 °F - 77.0 °F 94% 29.96 in 10.0 mi SSW 5.8 mph - N/A   Clear